Wind_Speed
28 28 29 31 32 33 36 37 39 41 40 35 34 35 34 34 33 29 25 24 24 24 27 31 32 31 28 24 24 26 25 25 26 28 29 33 34 31 29 27 24 22 22 23 24 26 27 29 32 34 36 37 38 38 37 37 36 35 33 32 31 31 31 32 33 33 33 33 33 32 30 28 27 25 24 24 25 26 28 30 31 33 34 33 29
31 32 33 34 35 34 36 37 39 41 39 35 32 32 33 31 28 26 25 25 25 26 31 36 34 31 29 25 27 29 28 26 26 27 29 32 33 31 30 28 25 23 22 23 24 25 25 26 26 28 30 32 35 37 38 38 37 35 34 32 31 31 32 33 33 33 33 33 33 32 30 28 26 25 24 24 23 24 25 26 28 30 33 35 33
37 37 38 37 36 36 37 39 40 40 38 33 29 31 32 28 26 26 25 24 25 28 34 36 34 31 28 26 31 32 29 26 25 27 29 32 32 31 32 30 28 27 26 26 26 26 25 24 23 23 24 25 28 31 32 33 32 32 31 30 30 31 32 32 34 33 33 34 33 32 29 27 26 24 24 23 23 23 24 25 26 28 31 34 36
38 38 39 40 40 41 42 42 40 36 32 27 27 32 31 26 25 25 23 22 26 31 35 36 33 29 27 29 33 32 29 27 25 26 30 32 31 31 32 30 30 30 29 28 27 27 25 23 22 22 22 22 24 26 27 28 29 29 29 29 29 31 31 32 35 35 34 35 34 32 29 28 26 25 24 23 23 23 24 24 25 27 29 32 36
37 38 41 42 43 44 45 43 36 30 27 25 28 29 26 24 24 25 25 27 31 36 37 34 32 29 29 31 32 30 28 27 26 27 32 32 30 31 32 30 30 30 27 25 24 23 23 22 23 23 22 21 22 24 24 25 26 27 27 27 28 30 31 31 35 36 35 36 35 33 30 29 28 27 26 25 24 24 24 24 25 26 28 31 34
40 42 43 44 44 43 41 39 33 30 27 24 24 24 24 26 28 29 30 33 37 38 35 31 32 31 30 32 30 28 28 28 27 29 32 31 28 29 29 29 28 27 24 22 22 21 21 21 23 24 24 23 22 23 23 23 25 27 26 26 27 29 30 31 34 36 36 37 36 33 31 31 30 29 28 26 25 24 24 24 25 26 27 30 32
41 42 42 40 39 38 37 35 31 30 29 26 24 23 25 28 31 32 33 35 38 38 33 29 29 29 30 32 30 29 29 28 28 31 33 29 26 25 26 26 26 25 24 24 24 24 23 22 23 23 23 23 22 21 22 23 24 25 25 25 27 27 28 30 33 35 36 36 35 33 33 32 31 28 25 24 24 24 24 25 25 26 27 28 31
40 38 37 35 36 36 35 33 28 28 30 31 30 25 24 27 29 32 32 33 34 34 29 23 24 29 30 31 30 29 29 28 30 33 33 27 22 23 26 27 26 25 25 25 25 25 25 25 25 24 23 23 23 22 22 22 22 22 23 26 27 27 27 29 32 34 35 35 34 34 33 30 27 25 24 25 25 26 27 27 28 28 29 29 30
42 39 36 35 36 36 36 32 27 28 31 32 30 25 24 26 28 31 31 31 30 28 26 24 27 32 32 30 29 29 29 30 32 34 31 24 21 23 26 28 28 28 28 26 26 27 27 27 27 28 27 25 25 25 24 23 23 23 24 26 28 27 27 27 29 30 31 33 33 32 30 27 26 28 29 30 30 30 30 31 31 32 32 32 32
44 40 38 37 37 37 37 35 30 30 32 31 31 29 31 32 33 35 34 32 30 29 31 31 32 32 32 31 31 30 31 32 34 33 29 25 24 26 27 28 29 29 30 29 30 30 30 29 29 30 30 28 26 27 28 27 25 24 26 28 29 29 29 28 28 28 29 30 31 30 29 30 31 33 33 33 33 33 33 33 33 34 34 34 34
46 43 41 39 39 38 37 36 34 34 36 38 39 40 41 41 39 37 35 35 33 32 35 35 34 33 33 33 32 31 31 34 35 32 30 28 28 29 28 28 28 29 31 31 31 31 30 30 29 30 30 29 28 29 31 31 28 26 27 29 31 31 31 31 31 30 29 30 32 33 34 36 36 36 35 35 34 33 33 34 34 34 34 34 35
48 45 43 40 41 40 36 35 36 36 39 41 44 46 47 47 45 42 38 38 38 36 38 38 37 37 35 34 32 31 33 36 36 32 31 31 31 31 29 29 30 31 32 31 30 29 29 29 29 31 31 31 31 32 33 33 33 31 30 30 32 33 33 33 33 33 33 35 36 38 39 40 40 39 38 36 35 34 34 34 34 34 34 34 34
47 44 41 40 40 39 35 35 38 39 40 42 45 47 49 50 50 50 45 41 41 39 40 41 39 38 37 35 33 34 36 38 35 32 31 33 33 32 30 30 32 33 33 33 32 31 32 31 31 32 33 33 33 33 34 34 34 34 34 33 34 34 33 34 34 34 35 36 38 39 40 40 40 40 39 37 36 36 36 36 36 36 36 36 36
45 43 42 41 43 41 39 40 41 41 41 42 44 47 50 52 52 52 47 42 41 41 42 43 41 40 39 38 37 37 40 39 36 33 32 34 35 33 32 33 35 35 34 34 34 34 35 35 34 33 33 33 33 33 35 36 35 35 36 36 35 35 35 34 34 34 35 36 37 38 38 38 38 38 37 37 37 37 38 38 37 37 37 38 37
45 44 44 44 46 46 45 47 45 43 42 41 42 44 47 48 47 45 40 38 40 41 41 42 42 41 40 38 39 40 41 39 37 35 35 36 36 34 33 36 37 36 36 37 36 35 35 36 35 35 33 31 31 32 35 38 39 38 38 38 37 37 37 36 36 36 36 36 37 38 38 37 36 36 36 35 35 35 37 37 38 38 38 38 38
45 45 46 46 47 48 48 50 49 48 47 45 43 43 43 41 38 36 35 36 38 40 40 40 40 40 39 39 40 42 41 40 39 38 38 38 36 35 35 38 39 38 39 39 38 36 36 36 36 35 34 32 31 31 33 37 42 42 41 40 40 40 40 40 39 38 38 38 38 38 38 37 33 32 32 33 34 34 36 37 37 37 37 37 37
42 43 44 45 46 47 47 48 49 49 48 47 45 42 39 36 34 33 35 36 37 38 39 39 39 40 41 42 42 43 43 42 42 43 41 38 36 36 37 39 40 40 41 41 39 37 37 37 36 36 34 33 32 32 33 34 39 44 45 43 42 42 43 43 43 42 41 39 38 37 36 34 30 28 29 29 30 31 33 34 33 33 34 35 36
41 41 41 41 43 44 45 45 44 44 43 43 43 40 35 33 33 34 36 37 36 36 37 37 39 41 42 43 44 44 44 44 45 45 42 38 37 37 39 40 41 42 42 42 40 39 38 37 36 35 34 33 33 32 33 33 35 40 45 48 47 45 44 44 44 44 42 40 38 37 36 34 31 32 32 30 28 28 29 28 28 29 31 32 35
40 40 38 37 36 37 38 38 37 37 38 40 41 37 32 32 33 35 37 37 36 36 37 38 40 42 43 44 44 44 45 45 45 43 41 39 39 39 40 40 41 42 44 44 42 41 40 38 36 35 35 35 34 33 33 34 35 37 40 45 49 50 48 46 44 43 41 40 40 39 38 38 37 37 37 35 32 31 30 26 25 27 29 30 34
40 39 36 34 32 32 33 34 35 34 34 37 38 35 33 33 34 36 37 37 36 38 40 40 40 41 42 44 45 45 45 45 44 43 42 41 41 41 41 42 42 43 44 45 44 42 40 38 36 35 35 35 35 35 35 34 35 36 38 40 44 49 51 50 48 46 44 41 40 39 39 41 42 41 40 40 38 38 36 32 30 31 31 32 33
40 38 36 34 33 32 33 34 34 32 32 33 35 34 33 32 33 34 36 38 39 40 40 40 39 39 41 42 44 45 45 45 45 45 43 43 43 43 43 43 43 44 45 45 44 42 40 38 36 35 35 35 35 36 36 35 34 35 36 38 40 44 48 51 51 51 50 48 46 43 43 44 45 44 43 44 44 43 43 41 39 39 38 37 36
41 38 37 37 37 36 35 34 33 32 31 30 32 33 34 34 34 35 38 40 40 40 39 38 38 39 41 43 44 44 44 44 46 46 46 45 46 45 44 43 43 45 46 46 44 42 41 38 35 35 34 34 34 34 34 35 35 35 36 37 39 41 44 49 52 53 54 54 53 50 49 49 49 48 48 48 48 48 48 47 46 45 44 44 42
41 40 41 41 40 38 36 34 32 31 30 29 29 30 32 34 35 36 38 39 39 39 39 38 38 40 42 44 43 42 41 43 46 46 46 46 45 45 44 44 45 47 47 45 43 42 40 37 35 34 34 34 34 34 34 35 35 36 37 38 39 39 41 44 49 53 55 56 56 56 55 55 54 54 53 53 53 53 52 52 51 50 49 48 45
43 43 43 42 41 39 36 34 32 31 31 31 30 29 30 32 33 35 36 37 39 39 39 39 39 41 43 43 41 39 40 43 45 45 45 45 44 43 44 45 46 46 45 43 42 41 39 37 35 34 34 34 34 35 35 35 35 35 37 38 40 40 40 41 43 46 50 52 54 56 57 57 58 59 58 58 57 57 56 56 55 54 52 50 47
45 45 43 41 40 38 37 35 33 32 33 33 33 32 32 33 34 35 36 37 38 39 40 40 41 42 42 40 39 39 41 42 44 44 44 44 44 43 43 44 45 43 42 41 41 40 37 36 35 35 35 35 35 36 36 35 35 35 37 38 39 40 40 41 43 45 46 47 49 50 50 51 53 54 55 56 56 57 56 56 56 56 53 51 49
44 42 40 38 38 37 37 36 35 34 34 34 34 35 35 36 37 37 38 38 38 39 41 42 42 42 40 39 39 41 42 42 43 43 43 43 43 42 41 42 41 40 39 39 40 39 38 37 36 36 36 37 37 38 37 37 36 36 37 39 40 39 39 39 41 44 46 48 49 50 50 49 49 49 49 50 51 52 52 52 52 53 52 51 50
39 38 38 38 38 37 37 37 37 36 36 35 35 36 37 38 39 39 39 40 41 42 43 44 44 43 41 41 42 43 43 43 43 43 42 42 41 40 40 40 39 39 38 39 39 40 40 39 38 38 38 39 40 40 40 40 40 39 39 40 41 40 40 39 39 41 43 46 49 51 53 54 54 53 52 51 51 51 52 52 51 52 52 52 52
40 40 40 40 40 39 39 39 38 38 38 38 38 39 40 41 42 42 43 44 46 46 46 46 45 44 44 44 45 45 45 44 44 44 42 41 41 41 40 40 40 39 39 40 40 41 40 40 40 40 41 42 42 43 43 43 43 43 43 43 44 44 44 43 44 44 44 44 45 47 50 53 55 57 57 57 57 57 57 57 57 56 55 54 54
45 45 44 44 43 43 42 42 41 41 41 41 41 42 43 45 46 47 49 50 49 48 46 45 45 45 45 46 47 47 46 47 47 46 44 43 42 42 42 42 42 41 41 41 41 41 40 40 41 42 43 43 44 45 45 45 45 45 45 46 47 48 49 50 50 50 49 48 47 47 47 48 51 53 55 57 58 59 59 59 59 57 54 52 53
47 47 46 46 46 46 45 45 44 44 44 44 45 45 46 47 48 49 50 49 47 45 44 44 45 46 47 48 48 48 49 50 49 47 46 45 45 44 44 44 44 43 43 43 42 41 40 40 41 42 43 44 45 46 46 47 46 46 47 48 48 50 51 53 53 53 52 50 49 49 48 48 49 50 51 53 54 55 55 54 54 53 52 51 52
48 48 48 47 47 47 47 47 47 47 47 47 48 48 48 49 49 48 47 45 45 45 45 46 46 47 48 49 50 51 52 52 50 48 48 48 47 47 47 46 46 45 45 44 42 41 40 40 41 42 44 45 46 46 46 46 47 48 48 49 50 51 52 53 54 54 53 52 51 51 50 50 50 50 51 51 52 53 52 51 50 50 51 52 52
50 50 50 50 49 49 49 49 49 49 49 49 49 49 49 49 49 48 47 46 47 48 48 48 48 49 50 51 53 54 54 53 51 50 50 51 50 50 49 48 48 47 46 44 43 41 40 40 41 43 44 46 47 48 48 48 49 49 50 51 52 53 54 54 55 55 55 54 54 54 54 53 53 53 53 53 53 53 54 53 51 50 50 52 52
51 52 52 52 52 51 51 51 50 50 49 49 49 50 50 50 50 49 49 50 50 50 50 50 50 51 52 53 54 55 54 53 53 53 52 52 53 52 50 49 49 49 48 46 44 41 40 40 41 43 45 46 48 49 50 51 52 52 52 54 54 54 55 56 56 56 56 56 55 55 56 56 55 55 55 55 55 55 54 55 54 52 51 51 53
51 52 52 53 53 52 52 52 52 52 51 51 51 52 52 52 53 53 53 54 54 54 53 52 52 52 53 54 55 55 55 55 56 55 54 53 53 52 51 50 50 50 50 48 45 42 41 41 41 42 44 47 48 49 50 52 54 54 55 55 56 56 56 56 56 56 56 56 56 56 56 56 56 56 56 57 57 57 56 56 56 55 53 52 52
52 52 53 53 53 53 53 53 53 53 53 53 54 54 55 55 55 56 56 56 56 56 56 55 55 56 57 57 57 57 57 57 57 56 54 53 52 51 51 50 50 51 51 50 47 44 44 45 44 42 42 45 46 47 49 51 52 53 54 55 56 56 56 56 56 56 56 56 56 57 57 57 56 56 56 57 58 59 59 58 58 57 56 55 53
53 53 54 54 54 55 55 55 56 56 56 56 56 56 56 56 56 56 56 56 57 57 58 59 60 61 61 59 58 58 58 57 55 53 52 52 52 51 51 51 51 52 52 51 49 47 47 50 51 48 46 46 46 46 47 48 48 49 50 52 53 54 55 55 55 55 55 55 55 55 55 56 56 56 57 57 58 59 60 60 59 59 59 58 56
55 55 55 55 56 56 56 57 57 58 58 58 58 58 58 59 59 59 59 59 59 59 60 61 62 62 60 59 58 59 58 56 53 51 50 51 51 51 52 52 52 52 51 52 52 51 51 53 55 55 53 52 50 48 48 48 48 48 47 47 48 49 49 50 51 51 51 52 52 52 52 53 54 56 57 58 59 59 60 61 61 61 61 61 60
57 57 57 57 58 58 59 59 60 60 60 61 61 61 62 63 63 62 62 61 61 61 62 61 61 60 59 60 60 60 58 56 54 52 50 51 52 52 52 54 54 53 51 52 54 55 55 56 56 57 57 56 55 53 51 50 49 48 46 45 45 45 45 45 46 46 47 48 49 49 50 51 52 54 56 57 59 59 60 61 61 62 62 63 63
58 58 58 59 59 60 61 62 62 63 64 64 64 64 64 64 64 63 62 61 61 61 61 60 60 60 61 62 61 59 58 56 55 54 53 52 53 53 53 55 57 56 54 54 56 57 56 56 56 57 58 57 56 55 53 52 49 47 46 45 45 45 44 43 43 43 44 45 46 47 49 50 51 53 54 56 57 58 60 61 61 62 62 63 64
58 59 59 59 59 60 61 63 64 64 65 65 65 65 64 63 62 62 61 61 61 61 61 61 62 63 63 62 60 59 58 57 57 56 55 54 54 54 54 55 58 59 57 56 56 57 57 56 56 57 58 58 56 53 52 51 47 45 46 47 46 45 44 44 43 43 43 45 46 48 48 49 50 53 55 56 57 58 59 61 62 63 63 64 65
58 58 59 60 60 61 62 64 65 65 66 66 66 65 64 63 62 63 63 62 62 63 63 63 63 63 62 61 61 60 59 59 58 58 57 56 56 56 56 56 57 59 60 58 57 57 57 58 58 58 58 58 56 53 51 49 47 46 48 48 46 45 45 45 45 45 44 44 45 48 49 49 50 52 55 56 58 59 60 61 62 64 65 65 66
58 59 60 62 62 63 64 65 65 64 64 63 63 63 62 61 61 62 63 63 62 63 63 62 61 61 61 61 61 61 60 60 60 59 59 59 58 58 57 57 57 58 60 60 59 58 59 59 59 59 58 57 55 52 49 47 47 47 47 47 47 48 47 48 48 48 47 46 46 48 51 51 51 53 55 56 58 59 61 62 64 65 66 67 68
59 60 61 62 63 64 64 64 64 63 62 62 62 62 61 60 60 61 62 62 62 62 62 62 62 61 61 61 61 61 61 61 61 61 61 61 60 59 58 58 59 60 61 61 61 60 60 60 59 58 57 56 53 51 49 47 47 48 47 47 48 48 49 49 50 51 51 50 50 52 54 55 54 54 57 58 60 61 62 64 65 66 67 69 70
61 61 60 60 61 63 64 64 65 64 63 63 62 62 60 59 58 60 62 62 63 64 65 65 64 63 62 62 61 61 61 61 61 61 61 61 61 61 61 61 62 63 63 63 62 62 61 59 57 55 54 53 52 50 49 49 48 49 48 48 48 48 48 49 50 52 54 54 53 54 57 59 59 59 60 61 63 64 65 66 67 68 69 70 71
66 64 62 62 64 65 65 66 65 63 61 60 59 59 59 59 60 62 64 64 64 64 65 65 64 64 64 64 63 63 62 62 62 62 63 64 64 64 64 64 64 64 64 63 62 60 59 56 54 52 51 50 50 48 48 48 49 49 48 48 48 47 47 48 49 51 53 54 54 54 55 58 60 61 63 65 66 68 68 69 70 70 70 71 72
68 67 66 66 66 66 67 67 66 64 63 61 61 62 64 65 64 63 62 61 61 61 62 63 64 66 67 68 67 66 65 64 64 64 65 65 65 66 66 65 64 64 63 63 61 59 57 54 51 51 50 48 46 44 44 44 45 46 47 47 47 47 47 47 48 49 51 52 53 52 53 56 59 61 64 67 69 71 72 72 73 73 73 73 74
67 67 67 67 67 67 69 69 69 69 68 67 67 67 68 68 66 62 60 59 59 59 58 58 57 57 59 62 64 65 65 65 65 66 66 65 65 67 67 66 65 66 64 63 62 60 58 54 52 51 51 48 45 43 42 42 42 43 45 45 47 48 48 49 50 52 52 52 51 51 52 55 58 60 63 67 70 72 73 74 75 75 75 75 76
68 68 69 69 69 70 71 71 72 71 71 70 69 69 70 69 68 66 64 62 61 60 58 55 52 51 53 57 61 64 64 64 65 68 68 67 66 67 67 66 67 68 66 65 65 64 61 58 55 54 53 52 50 48 47 47 46 47 47 48 50 51 52 54 56 57 57 54 52 52 52 53 56 58 61 65 68 70 73 74 75 76 76 76 76
70 71 71 71 72 72 73 73 72 72 71 71 70 70 70 70 70 69 68 66 65 64 63 62 61 61 62 64 67 69 68 67 68 71 73 72 71 70 69 69 69 68 66 66 67 67 66 64 60 57 55 54 54 53 52 52 52 53 53 53 54 54 56 58 60 61 60 57 54 53 53 53 54 55 57 60 64 66 69 71 73 74 76 76 76
72 72 73 73 74 75 75 75 74 73 72 72 72 73 73 73 72 72 71 71 69 69 70 71 71 71 71 73 75 76 76 75 76 79 79 78 76 74 73 72 70 67 66 67 67 67 67 66 64 61 58 57 56 56 56 57 58 59 59 58 57 58 60 61 62 63 61 57 54 53 53 52 53 54 55 57 60 63 65 66 68 71 73 74 74
74 74 75 75 76 77 77 78 77 76 75 75 76 76 77 77 76 75 75 75 74 74 75 77 77 77 77 78 79 80 80 80 82 84 83 81 78 76 74 71 68 67 67 66 66 66 66 65 63 62 60 59 58 58 59 60 61 63 62 61 60 62 64 65 64 63 60 56 54 53 53 54 55 56 57 58 59 63 66 67 69 71 73 73 74
Wind_Direction
278 278 276 276 276 276 276 274 273 272 274 283 293 290 286 285 280 275 276 283 296 303 305 306 310 309 297 292 300 301 298 297 300 305 316 325 326 323 316 304 294 290 284 278 277 275 274 272 270 269 268 266 263 260 258 257 259 261 264 265 267 266 255 245 240 237 237 235 231 230 233 239 243 244 244 242 242 243 245 247 249 249 247 247 249
278 278 278 279 280 282 282 282 279 274 274 282 291 286 281 280 272 269 278 286 295 297 298 303 308 305 292 292 304 303 298 295 299 307 315 322 323 321 318 308 299 296 291 285 284 282 281 280 278 275 271 269 266 264 262 260 259 259 260 261 262 258 250 243 237 236 236 233 231 233 238 241 243 245 246 244 243 244 245 248 249 250 249 247 246
276 276 277 280 282 284 287 287 284 279 277 279 281 282 280 270 263 274 284 286 292 295 295 299 305 300 289 297 307 304 296 292 299 309 319 325 323 320 317 309 301 297 291 286 285 285 286 287 288 284 276 272 269 267 265 261 256 253 252 253 253 251 247 242 235 234 234 231 232 236 238 239 241 243 246 247 248 248 249 250 251 251 250 249 247
275 277 278 281 282 284 288 288 285 281 278 275 274 278 275 261 266 281 284 283 289 293 294 297 300 294 289 301 305 300 294 293 300 310 322 328 324 318 313 305 298 294 290 286 286 288 289 290 292 289 282 277 275 273 268 261 250 245 245 245 247 245 244 241 234 232 232 231 234 239 239 239 240 241 242 246 249 252 253 254 254 254 253 250 249
272 277 279 281 283 285 287 285 282 278 273 273 272 269 262 261 275 283 281 284 289 292 294 296 297 291 289 297 299 296 294 297 304 315 326 329 325 318 310 302 297 293 291 289 289 291 291 290 290 290 284 276 275 276 272 264 252 245 243 240 241 241 240 239 235 233 232 232 237 241 241 240 241 241 242 244 247 250 253 255 256 257 256 254 251
270 275 277 280 282 282 282 281 277 272 267 264 261 257 257 268 278 282 284 289 292 296 296 293 293 289 286 291 294 293 293 297 306 319 327 330 327 316 305 299 295 294 295 295 294 291 288 286 285 287 282 272 270 274 272 266 257 249 244 239 237 236 237 238 236 235 234 234 239 242 242 241 241 242 244 246 249 252 254 256 258 258 258 257 254
271 274 277 279 278 277 280 280 274 270 266 257 252 257 264 272 278 283 289 292 293 295 294 288 286 282 281 287 290 291 292 295 307 320 326 329 325 309 296 292 291 293 296 297 295 289 284 282 282 284 280 270 265 271 270 264 260 254 247 241 237 236 237 237 236 236 236 237 241 243 243 243 243 244 246 250 253 257 260 262 263 262 261 260 258
273 276 277 275 275 277 281 279 273 270 268 260 254 256 264 272 279 284 290 291 289 290 287 274 274 277 278 284 288 291 291 293 308 320 324 327 316 296 287 287 288 289 288 289 288 284 281 280 279 278 278 272 262 264 268 262 259 255 250 243 238 237 237 236 237 237 239 242 244 245 245 245 245 248 253 258 261 263 265 267 269 269 268 266 263
274 275 274 273 275 278 279 274 267 266 264 257 249 248 260 272 279 284 287 287 281 280 274 262 270 278 278 282 286 287 289 294 307 317 321 318 300 287 287 290 291 288 285 284 282 282 282 280 277 273 274 273 263 259 264 263 256 251 247 244 241 240 238 239 240 242 246 248 248 246 245 245 250 257 262 265 268 268 268 269 270 271 272 271 269
272 272 272 274 275 276 276 269 260 256 257 255 251 254 267 277 282 284 285 283 275 270 269 269 274 277 278 283 284 282 286 295 306 314 315 306 291 286 290 296 295 290 287 284 281 281 283 283 279 275 274 270 262 256 258 260 257 251 246 245 244 243 242 242 242 244 248 250 246 244 245 250 258 264 267 269 270 270 269 269 270 270 270 271 270
270 269 269 272 274 273 272 267 258 253 255 258 259 261 269 277 282 281 279 280 274 263 265 270 274 277 279 283 282 280 285 296 305 309 307 299 290 286 290 297 298 293 290 286 282 282 283 283 279 277 275 266 258 255 255 254 254 252 248 246 246 246 246 247 246 244 246 247 245 247 252 257 262 265 268 269 269 268 267 267 268 267 267 267 267
270 266 265 268 271 270 267 265 261 256 256 258 260 262 266 272 276 276 274 275 272 262 261 267 271 275 278 279 279 279 288 298 302 304 302 297 291 286 286 296 301 297 293 288 284 282 282 282 279 278 276 269 260 255 254 253 251 249 248 247 246 246 247 248 249 248 247 248 250 253 257 260 263 266 267 267 267 266 265 265 265 265 264 264 263
266 263 263 266 267 265 263 266 264 261 260 260 261 262 264 267 269 272 271 268 267 262 261 264 266 270 273 275 277 282 292 298 298 297 296 295 291 285 282 291 299 299 295 291 287 283 281 280 281 280 277 273 267 258 252 250 249 249 248 248 247 246 246 247 249 251 252 254 256 257 260 262 264 266 267 266 265 264 261 260 261 261 262 262 262
262 264 265 266 265 261 260 266 269 267 267 266 265 263 263 264 266 268 267 264 264 260 259 261 262 266 269 272 277 285 292 293 291 290 290 292 289 281 277 286 294 296 295 292 288 285 283 281 282 283 279 273 270 264 253 247 246 248 249 250 251 250 249 249 250 252 254 257 259 260 260 262 264 265 266 265 264 262 260 258 258 259 260 261 262
262 266 267 267 266 262 261 267 273 274 275 273 269 265 263 263 263 264 263 260 260 256 256 259 262 265 269 272 278 285 288 287 285 285 287 290 286 279 279 287 293 295 295 293 289 287 285 283 283 284 282 275 272 269 259 249 246 247 248 249 251 252 252 251 251 253 255 258 259 260 260 261 263 265 265 264 263 262 261 261 261 262 262 263 264
266 268 268 267 267 266 265 269 274 278 280 279 276 270 266 262 258 256 256 255 256 254 255 259 262 265 269 275 280 283 283 282 282 284 288 287 281 278 281 289 294 295 296 293 290 289 287 283 283 284 282 277 274 273 267 256 249 248 250 250 251 252 252 251 251 253 254 256 258 259 260 260 262 264 265 264 262 263 264 265 266 267 267 266 264
269 270 269 269 269 270 271 273 276 279 281 281 279 272 265 260 252 248 252 255 256 256 257 260 263 268 275 280 282 282 282 282 283 286 286 283 276 275 278 285 291 293 294 291 288 289 289 285 283 284 282 277 273 273 273 266 256 251 250 251 252 253 253 252 252 252 252 253 255 257 258 257 258 260 262 261 260 262 265 266 267 268 268 267 266
272 274 273 272 273 274 275 276 278 279 280 279 276 269 260 254 248 245 249 253 254 256 258 262 268 275 279 281 282 282 282 283 285 286 284 279 275 275 277 281 287 291 291 290 288 288 289 287 284 282 281 279 276 273 273 273 268 259 252 250 251 252 254 254 254 253 252 252 252 252 254 254 253 253 255 254 251 253 258 263 268 269 269 269 269
275 277 277 275 274 275 276 276 276 278 278 275 271 264 255 250 249 247 247 248 252 258 264 268 273 276 277 278 280 280 282 283 284 284 282 278 277 277 277 279 284 289 290 289 287 286 289 288 284 281 280 279 278 276 275 275 274 270 262 255 252 251 253 254 254 252 251 250 251 251 252 251 249 248 249 249 246 246 249 255 264 268 269 270 271
275 276 275 273 271 272 274 276 276 276 275 271 266 258 251 250 250 249 248 251 256 263 268 270 272 274 275 277 278 279 281 283 283 282 280 279 278 277 278 279 281 285 287 287 286 285 288 288 284 281 281 280 280 279 279 278 277 275 271 266 260 255 253 253 253 251 249 249 249 249 250 251 250 248 248 247 247 248 249 250 255 262 266 270 272
272 272 271 269 269 270 272 273 273 273 272 268 261 252 247 250 252 252 254 258 262 265 267 269 271 273 275 276 278 280 282 282 281 280 278 278 278 278 279 279 279 282 283 283 283 283 286 287 283 281 280 280 280 281 282 282 282 281 277 273 268 263 259 257 254 252 250 249 248 247 247 250 252 251 250 250 250 251 253 254 255 259 264 267 267
266 267 268 270 271 272 272 271 271 272 271 268 261 252 246 248 251 254 258 262 264 264 266 269 272 274 275 277 279 281 283 284 283 281 277 276 276 277 279 279 279 280 280 280 280 282 284 285 282 280 280 279 279 280 282 283 284 285 283 279 274 269 264 261 259 257 255 254 253 252 249 250 252 253 254 254 255 256 257 258 259 260 264 266 266
262 264 268 271 272 272 271 268 269 269 269 267 264 257 250 249 252 255 259 262 264 266 267 269 272 275 277 278 280 283 287 289 287 284 280 276 274 275 277 277 277 278 279 279 279 281 284 284 281 280 280 280 280 279 280 282 283 284 284 283 279 274 268 264 261 259 258 258 258 258 256 254 254 254 256 257 258 259 260 261 263 264 265 266 265
262 266 269 271 271 270 268 266 265 265 266 265 263 260 257 254 255 256 258 260 263 265 268 270 274 277 279 279 280 285 292 294 292 288 282 277 274 274 274 275 276 278 280 280 280 281 284 284 282 281 280 280 280 279 278 279 280 281 282 280 278 275 271 267 264 261 260 260 259 260 260 259 258 258 259 260 259 260 260 261 263 265 266 266 264
264 267 268 269 268 267 266 265 264 263 262 262 262 261 260 260 260 260 259 260 261 265 269 273 276 279 278 277 279 286 294 297 295 290 283 278 275 274 274 275 277 279 280 281 282 284 285 284 282 281 281 281 280 279 277 276 277 279 280 278 275 273 271 268 265 264 263 262 263 262 262 261 260 260 260 260 260 259 260 261 262 263 264 264 261
264 265 265 265 266 266 266 267 267 266 263 262 262 262 262 262 263 263 262 262 264 269 273 276 279 280 276 273 277 285 292 297 297 292 285 280 278 276 275 275 276 278 281 283 285 285 285 284 283 281 281 282 282 280 278 275 273 274 276 276 273 270 270 268 266 264 263 262 263 263 264 264 263 262 261 260 259 258 259 260 260 262 262 261 258
264 265 264 265 266 266 267 268 269 268 266 266 265 265 264 263 262 261 262 264 269 274 277 278 279 278 274 273 277 283 290 296 298 294 288 282 279 277 276 276 277 279 282 284 285 286 286 285 283 281 280 280 280 280 279 275 271 268 268 269 269 267 266 266 267 267 266 264 263 262 262 262 263 263 263 263 262 261 261 261 261 262 262 260 256
264 266 267 267 267 267 267 268 268 269 269 269 269 269 268 267 265 264 266 270 274 277 278 278 277 276 275 275 278 282 288 294 298 296 289 282 279 278 278 279 280 282 284 285 285 285 285 284 283 281 279 279 278 278 277 275 273 269 266 264 264 264 263 264 266 267 268 268 267 265 264 262 262 262 262 262 263 263 264 264 265 266 264 260 256
265 266 267 267 268 268 267 267 268 268 269 269 269 270 270 270 269 269 271 273 276 277 278 278 277 276 276 277 279 284 289 294 298 296 291 284 280 279 279 280 282 283 286 286 286 284 283 283 283 282 281 280 279 278 276 274 273 271 269 266 264 263 264 264 266 267 268 268 268 267 267 266 264 263 262 262 262 263 263 264 264 264 262 259 256
265 266 266 267 267 267 267 268 268 268 268 269 269 269 270 270 270 272 273 274 275 277 277 277 278 278 278 279 281 285 290 294 296 294 291 287 283 282 281 280 281 284 286 287 286 284 283 283 284 283 283 282 281 279 277 275 274 273 271 270 268 266 266 266 266 267 267 267 267 267 267 268 267 266 264 263 263 262 262 262 262 260 258 258 258
267 268 268 268 267 267 267 268 268 268 269 269 269 270 271 271 273 274 274 275 276 277 277 278 279 279 280 281 283 286 290 293 293 292 290 287 283 282 281 280 281 283 285 287 286 283 283 284 284 284 283 283 282 280 279 277 275 274 273 271 270 269 268 267 267 267 267 267 266 267 267 268 269 268 267 265 264 263 263 262 262 260 256 255 256
269 270 270 270 270 269 269 269 269 270 270 270 271 271 272 272 273 274 274 276 277 278 278 278 279 280 281 282 283 286 288 289 289 289 288 285 282 280 281 280 280 281 284 286 283 281 281 283 283 283 284 283 282 281 280 278 276 274 273 273 272 271 270 269 269 268 268 268 268 268 268 268 269 270 269 268 266 265 265 264 263 262 259 255 254
271 272 273 273 273 273 272 271 271 271 271 272 272 272 272 272 272 273 274 276 277 278 277 277 279 280 281 282 283 284 286 286 287 288 286 283 280 279 280 281 280 281 283 284 281 278 279 281 283 284 284 284 282 281 280 279 277 277 276 275 274 273 273 272 271 271 270 270 269 269 269 268 268 268 268 269 269 267 266 264 264 263 262 259 255
270 271 272 273 274 274 274 274 274 274 273 273 273 272 272 272 273 274 275 277 277 277 277 276 278 281 282 283 283 284 285 286 287 286 284 282 280 279 280 280 279 280 282 282 280 279 279 280 282 283 283 282 281 280 280 279 278 278 277 277 276 276 275 274 274 274 273 273 272 271 270 269 268 267 267 267 268 268 268 266 264 263 262 261 258
270 270 270 271 271 272 272 273 273 274 274 274 274 274 274 274 275 276 277 278 278 278 277 276 278 282 284 284 284 284 285 286 286 285 283 280 279 279 279 279 279 280 282 282 283 284 283 283 285 285 284 282 281 279 278 277 277 278 278 277 277 277 276 276 276 275 275 275 274 274 272 271 269 268 267 266 266 267 267 267 265 263 261 261 260
270 271 272 273 273 273 273 273 273 274 274 274 274 275 275 275 276 278 279 279 279 278 278 278 280 282 283 283 283 284 285 285 285 283 281 279 278 278 278 278 278 279 282 285 287 289 288 287 289 290 290 287 285 282 279 277 277 279 280 279 277 276 276 276 276 276 276 275 274 273 273 272 271 269 268 266 266 266 266 266 265 263 262 260 259
270 271 271 272 273 273 273 273 273 274 274 275 275 275 275 276 276 277 278 279 279 279 278 278 279 281 282 283 283 284 285 284 282 281 279 278 277 277 277 278 278 280 284 286 288 289 289 288 288 289 291 290 289 287 283 281 279 280 281 282 279 277 276 276 276 276 275 274 273 272 271 271 270 269 268 267 266 265 265 265 265 263 262 260 258
269 270 270 270 270 271 271 271 271 271 272 273 274 275 276 276 277 278 278 279 279 279 279 279 280 281 282 283 284 284 284 282 281 280 278 277 277 278 279 280 281 283 285 285 285 286 286 286 286 286 287 288 288 288 286 285 283 282 281 281 280 278 277 277 277 277 277 276 275 274 273 271 269 267 266 266 265 265 265 264 264 263 262 260 258
267 268 269 269 270 270 270 270 270 270 271 271 272 273 274 276 277 277 278 278 278 278 279 280 280 281 282 282 282 282 281 280 280 279 279 279 279 279 280 281 281 282 283 282 282 282 282 283 284 284 284 284 285 286 285 285 285 282 280 280 279 278 278 277 277 277 278 278 278 277 275 274 272 269 267 265 264 264 264 264 263 263 262 261 259
266 267 268 269 270 271 271 271 271 272 272 273 273 273 274 274 275 276 276 276 276 276 277 278 279 279 279 279 279 278 278 278 278 279 279 279 279 279 279 279 279 280 281 280 279 279 280 280 281 282 282 282 283 283 283 282 281 279 279 279 278 278 277 277 276 276 278 279 279 278 276 275 274 273 270 268 266 264 264 263 263 262 261 260 259
266 267 269 269 269 271 273 273 274 274 275 275 274 274 274 274 274 274 274 274 274 275 275 276 277 277 277 277 276 276 277 277 276 276 277 277 277 277 278 278 278 279 280 279 278 278 278 280 281 282 281 281 282 282 281 279 277 276 277 278 278 277 276 276 276 275 274 276 277 277 276 275 274 274 272 271 269 267 265 264 263 262 262 261 260
266 268 271 272 272 273 274 275 275 275 275 275 275 274 274 273 274 274 274 274 275 275 276 276 276 276 276 276 276 276 276 276 276 276 276 277 277 277 277 278 278 278 278 279 279 279 280 281 282 282 281 281 280 279 278 276 275 275 277 279 280 280 280 279 278 277 274 273 274 276 276 274 272 272 272 271 270 269 267 266 265 264 263 262 261
267 270 273 274 274 273 273 273 273 274 275 275 275 276 276 276 276 276 276 276 277 277 277 277 276 276 275 275 275 275 275 275 275 276 277 277 276 277 277 278 278 278 278 279 279 280 281 282 282 282 281 280 279 277 275 273 272 274 276 277 278 278 279 280 280 279 278 276 275 276 277 275 273 271 271 270 269 268 267 266 266 265 265 264 264
268 271 272 273 273 272 271 272 273 274 275 276 276 277 277 277 277 277 278 278 279 279 279 278 277 276 275 274 273 273 274 274 275 276 276 276 276 277 278 278 278 279 279 279 279 280 281 282 282 282 281 279 278 276 273 271 271 272 272 273 274 274 274 274 274 275 275 275 274 274 275 275 274 273 272 270 269 268 267 266 266 265 265 265 265
268 269 269 270 271 271 271 272 273 273 274 274 275 275 276 276 277 278 279 280 280 279 278 278 277 277 275 274 274 273 273 273 274 274 275 276 278 279 280 280 280 280 280 280 280 281 282 282 283 282 280 279 278 275 272 270 271 271 270 271 272 272 271 271 270 271 271 271 271 270 271 272 272 272 271 270 270 269 268 267 266 265 265 265 265
267 267 266 267 269 270 271 272 271 271 271 272 272 273 275 276 276 277 277 277 277 277 277 278 279 279 279 277 276 275 274 274 275 275 275 277 279 280 281 282 281 281 281 281 282 283 284 284 284 283 282 281 279 277 273 269 267 267 268 270 272 273 272 272 272 272 271 270 269 269 269 269 269 269 269 269 270 270 270 269 268 267 267 266 266
268 268 267 267 267 268 268 269 270 270 271 271 271 272 273 273 274 273 271 271 272 274 277 280 280 281 281 280 278 278 278 279 278 277 277 277 279 280 282 283 283 283 283 284 285 287 287 287 286 285 285 286 285 284 282 278 273 271 273 275 277 278 278 278 278 277 275 272 270 269 268 267 267 267 268 269 269 270 271 271 271 270 269 268 268
269 269 269 268 268 268 267 268 269 270 271 271 271 271 270 270 270 269 269 268 268 269 272 273 271 269 270 271 273 277 279 279 279 279 279 278 279 281 282 283 283 285 285 286 288 289 290 290 290 289 290 291 291 291 291 289 286 284 283 283 284 285 284 284 283 282 279 277 274 272 270 268 267 267 267 267 268 268 269 270 270 270 270 270 270
268 269 269 269 268 268 268 268 269 269 270 270 270 269 268 268 268 268 268 267 266 266 267 267 265 263 263 264 268 272 274 275 276 277 278 278 279 280 281 281 282 283 283 285 287 288 290 290 291 291 291 292 292 292 292 291 290 289 287 286 286 286 285 284 283 282 281 279 278 276 274 272 270 268 268 267 267 267 268 269 270 269 269 269 269
267 268 268 269 269 269 269 269 268 268 269 269 269 268 268 268 267 267 267 267 266 265 265 265 265 264 264 265 267 269 271 272 273 274 275 276 277 279 281 281 281 280 280 282 283 284 285 286 288 289 290 291 291 291 291 291 290 289 287 286 286 286 285 284 283 282 281 281 280 279 278 276 274 272 270 270 269 269 268 268 269 269 269 268 268
266 267 268 269 270 270 270 270 270 269 269 268 268 268 268 268 268 268 268 268 267 267 265 264 264 265 265 265 266 267 268 270 271 273 274 275 277 279 280 280 279 278 279 279 279 280 280 282 284 286 287 288 289 290 290 289 288 287 286 286 285 285 284 283 282 282 282 282 282 281 280 279 278 276 274 272 272 272 271 270 268 268 268 268 268
Height
10745 10746 10746 10746 10746 10747 10747 10746 10746 10746 10746 10746 10746 10745 10744 10743 10742 10741 10742 10742 10741 10741 10740 10739 10741 10741 10741 10740 10738 10737 10737 10737 10736 10735 10733 10732 10731 10729 10728 10726 10725 10725 10724 10723 10723 10722 10721 10720 10720 10720 10720 10720 10721 10722 10722 10723 10724 10724 10725 10725 10726 10727 10728 10728 10730 10731 10732 10733 10734 10735 10736 10737 10739 10740 10741 10742 10742 10743 10744 10745 10746 10746 10747 10748 10749
10742 10743 10742 10742 10743 10743 10742 10742 10742 10741 10742 10743 10743 10742 10741 10740 10739 10738 10738 10739 10739 10738 10737 10735 10736 10738 10737 10736 10735 10734 10734 10734 10733 10731 10731 10730 10728 10726 10725 10724 10723 10722 10721 10720 10720 10719 10718 10717 10717 10717 10716 10716 10716 10717 10718 10719 10720 10721 10721 10722 10722 10723 10724 10725 10726 10728 10729 10730 10732 10733 10734 10735 10736 10738 10739 10739 10740 10741 10741 10742 10743 10744 10744 10745 10746
10739 10739 10739 10739 10739 10739 10739 10738 10738 10737 10738 10740 10740 10739 10738 10737 10735 10734 10735 10736 10736 10736 10734 10732 10732 10733 10733 10732 10731 10731 10731 10731 10730 10728 10727 10727 10725 10723 10722 10721 10719 10719 10717 10717 10717 10716 10716 10715 10714 10714 10713 10712 10712 10712 10713 10714 10715 10717 10718 10718 10719 10720 10721 10722 10724 10725 10726 10728 10729 10730 10731 10733 10734 10735 10736 10737 10738 10738 10739 10739 10740 10740 10741 10741 10742
10735 10734 10734 10735 10736 10735 10735 10734 10734 10734 10735 10735 10736 10735 10734 10734 10732 10731 10731 10732 10733 10732 10732 10731 10731 10731 10730 10729 10727 10727 10727 10727 10727 10726 10724 10724 10722 10720 10719 10718 10716 10715 10714 10714 10714 10714 10713 10713 10712 10711 10710 10710 10709 10709 10709 10710 10711 10712 10713 10714 10715 10716 10718 10719 10720 10722 10723 10725 10726 10727 10728 10730 10731 10732 10733 10734 10735 10736 10736 10737 10737 10737 10738 10738 10739
10731 10730 10729 10731 10732 10732 10731 10730 10731 10731 10731 10731 10732 10732 10731 10730 10728 10727 10728 10729 10729 10727 10728 10729 10728 10728 10727 10726 10725 10725 10724 10723 10723 10723 10722 10722 10720 10718 10715 10713 10712 10711 10712 10712 10712 10711 10710 10709 10709 10709 10708 10708 10707 10707 10707 10707 10707 10708 10709 10710 10711 10713 10714 10715 10717 10719 10720 10721 10723 10724 10726 10727 10728 10729 10729 10730 10731 10732 10733 10734 10734 10734 10735 10735 10735
10728 10726 10726 10727 10728 10728 10727 10727 10727 10727 10728 10728 10728 10728 10727 10726 10725 10725 10725 10725 10724 10723 10724 10725 10725 10724 10724 10723 10723 10723 10722 10721 10720 10720 10720 10720 10719 10715 10710 10708 10707 10709 10710 10710 10709 10708 10707 10707 10706 10706 10706 10706 10705 10705 10704 10704 10705 10705 10706 10707 10708 10709 10711 10712 10714 10716 10717 10718 10719 10721 10723 10724 10724 10725 10726 10726 10727 10728 10729 10730 10730 10731 10731 10731 10732
10725 10724 10724 10725 10724 10724 10725 10724 10724 10724 10724 10725 10725 10725 10724 10723 10722 10722 10722 10720 10718 10718 10719 10721 10721 10720 10720 10720 10720 10720 10720 10719 10717 10717 10718 10719 10718 10713 10707 10704 10705 10707 10708 10708 10707 10706 10705 10705 10704 10704 10704 10704 10703 10703 10702 10702 10702 10703 10704 10705 10706 10707 10708 10710 10711 10713 10714 10715 10717 10718 10719 10720 10721 10722 10723 10723 10724 10724 10725 10725 10726 10727 10727 10728 10728
10721 10722 10722 10722 10721 10721 10722 10722 10722 10721 10721 10721 10722 10721 10721 10721 10720 10718 10718 10717 10714 10713 10714 10716 10717 10716 10716 10716 10716 10716 10716 10716 10715 10715 10715 10717 10715 10710 10704 10703 10705 10706 10706 10705 10704 10703 10703 10702 10702 10702 10701 10701 10701 10701 10701 10700 10701 10701 10702 10703 10704 10705 10706 10708 10709 10710 10711 10713 10714 10715 10716 10717 10718 10718 10719 10720 10720 10720 10721 10721 10721 10722 10723 10724 10725
10716 10718 10719 10719 10718 10718 10719 10718 10719 10719 10719 10718 10718 10719 10719 10719 10718 10715 10715 10714 10712 10710 10709 10710 10712 10713 10713 10713 10713 10713 10712 10712 10713 10713 10714 10716 10712 10705 10702 10703 10704 10703 10702 10702 10702 10701 10701 10700 10700 10699 10699 10699 10699 10699 10699 10699 10699 10699 10700 10700 10701 10702 10704 10705 10707 10708 10709 10710 10711 10712 10713 10714 10714 10715 10715 10716 10716 10716 10717 10717 10717 10718 10718 10719 10720
10713 10715 10715 10715 10714 10715 10715 10715 10716 10717 10717 10717 10716 10716 10716 10716 10715 10713 10712 10712 10711 10708 10704 10704 10707 10708 10709 10710 10711 10710 10709 10709 10710 10711 10712 10713 10709 10703 10702 10702 10702 10700 10699 10698 10698 10698 10698 10697 10697 10697 10696 10696 10696 10696 10696 10696 10697 10697 10698 10698 10698 10699 10700 10702 10703 10704 10706 10707 10708 10709 10710 10710 10710 10711 10711 10711 10712 10712 10712 10712 10713 10713 10713 10714 10715
10711 10712 10712 10711 10711 10712 10712 10711 10712 10713 10714 10714 10713 10713 10712 10712 10711 10710 10710 10709 10709 10707 10702 10700 10702 10704 10705 10706 10707 10707 10707 10706 10706 10707 10708 10708 10706 10703 10701 10700 10699 10698 10697 10695 10695 10695 10694 10694 10693 10693 10693 10693 10693 10693 10693 10693 10694 10694 10695 10695 10696 10697 10698 10699 10700 10701 10702 10703 10704 10705 10705 10706 10706 10706 10707 10707 10707 10708 10708 10708 10708 10708 10709 10709 10709
10707 10709 10709 10709 10708 10709 10709 10707 10707 10708 10709 10709 10709 10709 10708 10708 10707 10707 10707 10707 10706 10705 10701 10700 10700 10701 10701 10702 10703 10704 10704 10704 10703 10703 10703 10704 10702 10701 10699 10697 10696 10695 10694 10693 10692 10691 10691 10690 10689 10689 10689 10689 10690 10690 10690 10690 10690 10691 10691 10692 10693 10694 10695 10696 10697 10698 10698 10699 10700 10701 10701 10701 10702 10702 10702 10703 10703 10703 10703 10703 10703 10703 10703 10704 10704
10702 10705 10706 10706 10705 10706 10706 10704 10703 10703 10705 10705 10705 10705 10704 10704 10704 10703 10703 10704 10704 10702 10700 10699 10699 10699 10699 10700 10700 10700 10701 10701 10701 10700 10700 10700 10699 10698 10697 10695 10694 10692 10691 10690 10689 10688 10687 10686 10686 10685 10685 10685 10685 10686 10687 10687 10687 10687 10687 10688 10689 10690 10691 10692 10693 10694 10694 10695 10696 10696 10697 10697 10698 10698 10698 10698 10699 10699 10699 10699 10698 10698 10698 10698 10699
10698 10700 10701 10702 10702 10702 10702 10701 10699 10699 10701 10702 10701 10700 10700 10699 10699 10698 10698 10699 10700 10699 10698 10697 10697 10697 10697 10697 10697 10696 10697 10698 10699 10698 10698 10697 10696 10695 10694 10693 10691 10690 10688 10687 10685 10684 10682 10681 10681 10681 10681 10681 10681 10682 10683 10683 10683 10683 10683 10684 10685 10686 10688 10689 10690 10690 10690 10690 10691 10691 10692 10693 10693 10694 10694 10694 10694 10694 10694 10694 10694 10694 10693 10693 10694
10694 10695 10697 10697 10697 10698 10698 10697 10695 10694 10695 10697 10697 10696 10695 10695 10694 10693 10693 10694 10695 10695 10694 10693 10693 10693 10693 10693 10692 10692 10693 10694 10695 10695 10695 10693 10692 10691 10690 10688 10687 10686 10685 10683 10682 10680 10679 10677 10677 10677 10677 10677 10677 10678 10678 10679 10679 10680 10680 10681 10682 10682 10683 10685 10685 10686 10686 10686 10686 10687 10687 10689 10690 10690 10689 10689 10689 10689 10688 10688 10688 10689 10689 10690 10690
10688 10690 10692 10692 10692 10693 10693 10693 10692 10690 10689 10691 10692 10691 10690 10690 10690 10688 10688 10689 10690 10690 10690 10690 10689 10689 10689 10689 10688 10688 10689 10689 10690 10690 10690 10690 10688 10687 10685 10683 10682 10682 10680 10678 10677 10676 10675 10674 10673 10673 10673 10673 10673 10673 10674 10675 10676 10676 10677 10677 10678 10679 10679 10680 10681 10681 10681 10681 10682 10682 10683 10685 10686 10686 10684 10684 10684 10684 10683 10683 10684 10684 10685 10685 10685
10683 10685 10687 10688 10687 10687 10688 10688 10687 10685 10684 10685 10686 10686 10685 10685 10685 10685 10684 10685 10686 10686 10686 10686 10685 10685 10684 10684 10683 10684 10684 10685 10685 10684 10684 10685 10685 10684 10682 10679 10679 10678 10676 10674 10673 10672 10671 10670 10669 10669 10669 10669 10669 10669 10669 10670 10671 10672 10673 10674 10674 10675 10675 10676 10676 10676 10677 10677 10677 10677 10679 10681 10682 10681 10680 10679 10679 10679 10677 10678 10679 10680 10679 10679 10678
10679 10680 10682 10684 10683 10682 10683 10683 10683 10682 10680 10680 10680 10681 10680 10680 10681 10681 10681 10682 10683 10682 10682 10682 10681 10680 10679 10679 10679 10679 10679 10680 10680 10679 10679 10680 10680 10680 10678 10676 10675 10674 10672 10671 10669 10668 10666 10666 10665 10664 10664 10664 10664 10665 10665 10665 10666 10667 10668 10669 10670 10670 10670 10671 10672 10672 10673 10672 10672 10673 10674 10676 10677 10676 10675 10674 10674 10674 10673 10674 10675 10674 10673 10673 10673
10675 10675 10677 10679 10679 10678 10678 10678 10679 10679 10677 10676 10676 10676 10676 10676 10676 10677 10678 10679 10680 10679 10678 10678 10678 10676 10675 10675 10674 10674 10675 10676 10675 10674 10674 10675 10675 10675 10675 10673 10672 10671 10668 10666 10665 10663 10663 10662 10661 10660 10660 10660 10659 10660 10661 10661 10661 10661 10662 10663 10664 10665 10666 10666 10667 10668 10668 10667 10667 10668 10670 10671 10671 10671 10670 10670 10670 10670 10670 10671 10672 10669 10668 10668 10667
10672 10672 10673 10675 10676 10676 10674 10674 10675 10675 10674 10673 10672 10672 10673 10673 10673 10673 10674 10675 10676 10676 10675 10674 10674 10673 10672 10671 10670 10670 10671 10671 10670 10670 10670 10670 10670 10670 10670 10669 10668 10667 10665 10662 10660 10659 10659 10659 10657 10656 10655 10655 10655 10655 10656 10656 10657 10657 10657 10657 10658 10659 10660 10661 10662 10662 10663 10663 10662 10663 10664 10664 10665 10666 10666 10666 10665 10665 10666 10667 10667 10664 10663 10663 10662
10669 10669 10669 10671 10673 10673 10672 10670 10670 10671 10671 10671 10670 10669 10670 10670 10670 10670 10670 10671 10672 10673 10672 10671 10671 10670 10668 10667 10666 10666 10666 10666 10665 10665 10666 10665 10664 10664 10664 10664 10663 10663 10661 10659 10656 10654 10655 10655 10653 10651 10651 10651 10651 10651 10651 10651 10652 10652 10652 10652 10652 10653 10654 10655 10656 10657 10657 10657 10657 10658 10659 10659 10659 10660 10661 10660 10660 10660 10660 10661 10661 10660 10659 10658 10658
10666 10666 10666 10666 10668 10669 10669 10668 10666 10666 10666 10667 10667 10667 10667 10667 10667 10668 10667 10667 10667 10669 10669 10668 10667 10666 10664 10663 10662 10662 10662 10661 10659 10659 10660 10660 10659 10659 10659 10659 10658 10657 10656 10655 10652 10650 10650 10650 10649 10647 10647 10647 10647 10646 10646 10646 10647 10647 10647 10647 10647 10647 10648 10648 10649 10650 10651 10652 10652 10653 10653 10653 10653 10654 10655 10655 10654 10654 10654 10654 10655 10655 10654 10653 10653
10664 10663 10663 10662 10663 10664 10665 10665 10664 10662 10662 10663 10663 10664 10665 10664 10664 10665 10665 10664 10664 10664 10664 10664 10663 10662 10660 10659 10658 10658 10658 10656 10654 10653 10654 10654 10654 10654 10655 10654 10652 10651 10651 10650 10648 10647 10646 10646 10645 10643 10642 10642 10642 10642 10642 10642 10642 10642 10642 10642 10642 10642 10642 10642 10643 10643 10644 10645 10645 10646 10647 10647 10647 10648 10648 10649 10649 10648 10648 10648 10648 10648 10648 10648 10649
10660 10660 10659 10658 10659 10659 10659 10660 10660 10659 10658 10659 10659 10660 10662 10661 10661 10662 10662 10661 10661 10660 10659 10660 10659 10657 10656 10655 10654 10654 10653 10652 10650 10648 10648 10647 10648 10650 10650 10649 10647 10647 10646 10645 10644 10643 10642 10641 10640 10639 10638 10638 10638 10637 10637 10637 10637 10637 10637 10637 10637 10637 10636 10636 10636 10637 10637 10638 10638 10639 10640 10640 10640 10641 10642 10642 10642 10642 10642 10642 10642 10642 10642 10643 10643
10656 10656 10655 10654 10654 10654 10654 10655 10656 10656 10655 10655 10655 10656 10657 10657 10657 10658 10658 10658 10658 10657 10656 10655 10655 10654 10652 10651 10650 10649 10648 10647 10646 10644 10643 10642 10643 10645 10645 10644 10643 10642 10642 10640 10638 10637 10637 10637 10636 10635 10634 10634 10633 10633 10633 10633 10632 10632 10632 10632 10632 10631 10631 10631 10631 10631 10631 10631 10632 10632 10633 10633 10633 10634 10634 10635 10635 10636 10636 10636 10636 10636 10636 10636 10637
10651 10651 10650 10649 10649 10649 10649 10649 10650 10651 10651 10651 10651 10652 10652 10653 10653 10653 10653 10654 10654 10653 10652 10651 10650 10649 10648 10647 10646 10645 10644 10643 10642 10641 10639 10637 10637 10639 10640 10639 10638 10638 10637 10636 10634 10632 10632 10632 10632 10631 10630 10629 10629 10628 10628 10628 10627 10627 10627 10627 10627 10627 10626 10626 10626 10626 10626 10626 10626 10626 10626 10626 10627 10627 10627 10628 10628 10629 10629 10629 10629 10630 10630 10630 10630
10646 10645 10645 10645 10645 10645 10645 10645 10645 10645 10646 10646 10647 10647 10647 10648 10648 10649 10648 10649 10649 10648 10648 10646 10645 10644 10644 10643 10642 10641 10640 10639 10638 10637 10636 10634 10633 10633 10633 10634 10634 10634 10633 10632 10630 10628 10627 10627 10627 10627 10626 10625 10624 10623 10623 10622 10622 10622 10621 10621 10621 10621 10621 10620 10620 10620 10620 10620 10620 10620 10620 10620 10620 10620 10620 10621 10621 10621 10622 10623 10623 10623 10624 10624 10624
10641 10640 10640 10640 10640 10640 10640 10640 10640 10640 10640 10641 10641 10642 10642 10643 10643 10644 10643 10643 10643 10643 10642 10641 10641 10640 10639 10638 10637 10636 10635 10634 10633 10633 10632 10631 10630 10629 10628 10628 10628 10628 10628 10627 10626 10624 10623 10622 10621 10621 10621 10620 10619 10618 10617 10616 10616 10616 10615 10615 10615 10615 10615 10614 10614 10614 10614 10614 10614 10614 10614 10614 10614 10614 10614 10614 10614 10614 10615 10615 10616 10616 10616 10617 10617
10636 10636 10635 10635 10635 10635 10635 10636 10636 10635 10635 10635 10635 10636 10636 10637 10637 10638 10638 10637 10637 10637 10637 10636 10636 10635 10634 10633 10632 10631 10630 10628 10628 10628 10628 10627 10626 10625 10625 10623 10622 10622 10623 10622 10621 10620 10619 10618 10616 10615 10614 10614 10613 10612 10611 10610 10610 10609 10609 10609 10609 10608 10608 10608 10607 10608 10608 10608 10608 10608 10607 10607 10607 10607 10607 10607 10607 10607 10607 10607 10608 10608 10609 10609 10609
10630 10630 10630 10630 10630 10630 10630 10630 10630 10629 10629 10629 10629 10630 10630 10630 10631 10631 10631 10631 10631 10631 10631 10631 10630 10629 10629 10627 10627 10626 10624 10623 10623 10623 10622 10622 10621 10621 10620 10619 10618 10618 10618 10617 10616 10615 10614 10613 10612 10610 10609 10607 10606 10606 10605 10604 10604 10603 10603 10603 10602 10602 10601 10601 10601 10601 10601 10601 10601 10601 10601 10601 10600 10600 10600 10600 10600 10600 10600 10600 10600 10600 10601 10601 10602
10624 10624 10624 10624 10624 10624 10624 10624 10624 10623 10623 10623 10623 10623 10623 10624 10624 10624 10625 10625 10625 10625 10625 10624 10624 10623 10622 10622 10621 10620 10619 10618 10617 10617 10617 10616 10616 10615 10614 10613 10613 10613 10613 10612 10610 10610 10609 10608 10606 10605 10603 10602 10601 10599 10599 10599 10598 10597 10596 10596 10595 10595 10594 10594 10594 10594 10594 10594 10594 10594 10594 10594 10594 10594 10593 10593 10593 10593 10593 10593 10593 10593 10593 10594 10594
10618 10617 10617 10617 10617 10618 10617 10617 10617 10617 10617 10617 10617 10617 10617 10617 10618 10618 10618 10618 10618 10618 10618 10618 10617 10617 10616 10616 10615 10614 10613 10613 10612 10612 10612 10611 10610 10609 10609 10608 10607 10607 10607 10607 10605 10604 10604 10603 10601 10599 10598 10597 10595 10594 10593 10592 10591 10591 10590 10589 10588 10587 10587 10587 10587 10587 10587 10587 10587 10587 10587 10587 10587 10587 10586 10586 10586 10586 10586 10586 10586 10586 10586 10587 10587
10610 10610 10610 10610 10610 10611 10611 10610 10610 10610 10611 10611 10610 10611 10611 10611 10611 10612 10612 10612 10612 10611 10611 10611 10611 10610 10610 10610 10609 10608 10607 10607 10607 10607 10605 10604 10603 10603 10604 10603 10601 10600 10600 10600 10600 10600 10599 10597 10595 10594 10593 10591 10589 10589 10588 10586 10584 10584 10583 10581 10580 10580 10580 10579 10579 10580 10580 10580 10580 10579 10579 10579 10579 10579 10579 10579 10579 10579 10579 10579 10579 10580 10579 10580 10580
10603 10603 10603 10603 10603 10603 10603 10603 10603 10603 10604 10604 10604 10604 10604 10604 10605 10605 10605 10605 10605 10605 10604 10604 10604 10604 10604 10603 10603 10602 10601 10601 10601 10600 10598 10597 10596 10596 10597 10597 10595 10594 10593 10594 10594 10594 10593 10591 10590 10589 10587 10585 10584 10584 10582 10579 10577 10577 10576 10574 10573 10573 10572 10572 10572 10572 10571 10571 10571 10571 10571 10571 10571 10571 10571 10571 10571 10571 10571 10571 10572 10572 10572 10573 10573
10597 10597 10597 10597 10597 10596 10596 10596 10596 10596 10596 10596 10597 10597 10597 10597 10598 10598 10598 10598 10598 10597 10597 10597 10597 10597 10597 10596 10596 10595 10594 10594 10594 10593 10592 10590 10589 10590 10590 10591 10590 10588 10586 10586 10587 10588 10586 10583 10583 10584 10582 10579 10578 10578 10576 10573 10571 10570 10569 10567 10567 10566 10564 10564 10565 10564 10564 10563 10563 10562 10562 10562 10563 10563 10563 10563 10563 10563 10563 10563 10564 10564 10565 10565 10566
10590 10590 10590 10591 10590 10590 10590 10590 10589 10590 10590 10590 10590 10590 10590 10590 10591 10591 10591 10591 10591 10590 10590 10590 10590 10590 10590 10589 10589 10588 10587 10587 10587 10586 10585 10584 10583 10583 10583 10583 10583 10582 10580 10579 10579 10580 10579 10575 10573 10575 10575 10572 10571 10570 10569 10567 10566 10564 10562 10561 10561 10559 10557 10557 10557 10557 10557 10556 10555 10555 10554 10554 10554 10554 10554 10554 10554 10554 10554 10555 10555 10556 10557 10558 10558
10584 10584 10584 10584 10584 10584 10583 10583 10583 10583 10583 10583 10583 10583 10583 10584 10584 10585 10584 10585 10584 10583 10583 10583 10583 10583 10582 10582 10582 10580 10579 10579 10579 10580 10580 10577 10576 10577 10576 10575 10575 10576 10575 10572 10570 10570 10570 10568 10566 10566 10566 10565 10563 10563 10561 10560 10559 10558 10557 10556 10555 10553 10551 10550 10550 10549 10549 10548 10548 10548 10548 10547 10546 10546 10546 10545 10546 10546 10546 10546 10546 10547 10548 10549 10550
10578 10578 10578 10578 10578 10577 10577 10577 10577 10577 10576 10576 10576 10576 10576 10576 10577 10578 10578 10578 10578 10576 10576 10576 10576 10575 10574 10574 10573 10572 10571 10571 10571 10572 10573 10571 10569 10570 10569 10566 10565 10567 10569 10566 10564 10562 10562 10561 10560 10559 10559 10558 10556 10555 10554 10553 10552 10551 10551 10550 10549 10547 10546 10545 10543 10542 10541 10540 10540 10539 10539 10540 10540 10539 10538 10537 10537 10537 10537 10537 10537 10537 10538 10539 10541
10571 10571 10571 10571 10571 10571 10570 10570 10570 10570 10570 10569 10570 10570 10569 10569 10570 10570 10571 10571 10570 10569 10568 10568 10568 10568 10566 10565 10565 10565 10564 10563 10563 10563 10564 10564 10562 10561 10561 10559 10555 10557 10561 10561 10558 10557 10556 10555 10553 10552 10551 10550 10550 10549 10547 10546 10546 10545 10544 10543 10542 10541 10540 10539 10538 10537 10536 10534 10533 10532 10532 10531 10531 10530 10530 10530 10530 10530 10529 10528 10527 10528 10528 10529 10530
10565 10565 10565 10565 10565 10564 10563 10563 10563 10563 10563 10563 10562 10563 10563 10563 10563 10563 10563 10563 10563 10562 10562 10561 10561 10560 10559 10558 10557 10557 10556 10556 10555 10555 10555 10556 10555 10554 10554 10554 10550 10548 10551 10554 10553 10551 10550 10549 10548 10546 10544 10543 10543 10543 10542 10540 10541 10539 10537 10536 10535 10534 10533 10533 10533 10533 10531 10529 10528 10526 10525 10526 10524 10522 10521 10521 10522 10522 10521 10519 10518 10518 10519 10519 10520
10559 10559 10558 10558 10558 10558 10557 10556 10556 10556 10556 10555 10555 10556 10556 10557 10556 10556 10555 10556 10556 10555 10555 10555 10554 10553 10552 10551 10550 10549 10549 10549 10548 10547 10547 10547 10548 10548 10547 10548 10546 10542 10541 10544 10545 10544 10543 10542 10541 10540 10538 10535 10535 10535 10534 10533 10534 10533 10531 10529 10528 10528 10527 10526 10526 10526 10526 10525 10523 10520 10518 10520 10519 10516 10514 10513 10513 10513 10512 10511 10510 10509 10509 10510 10510
10553 10553 10552 10551 10552 10552 10551 10550 10549 10549 10548 10547 10547 10547 10548 10549 10549 10547 10546 10547 10548 10547 10547 10547 10547 10546 10544 10543 10542 10542 10541 10541 10540 10539 10539 10539 10539 10540 10539 10539 10539 10536 10533 10533 10535 10536 10535 10534 10533 10532 10530 10529 10528 10527 10527 10526 10525 10525 10524 10523 10521 10520 10520 10519 10518 10518 10518 10519 10518 10514 10511 10511 10513 10510 10507 10506 10505 10504 10503 10502 10501 10500 10500 10500 10500
10547 10546 10546 10545 10545 10544 10544 10543 10542 10542 10541 10540 10539 10539 10540 10542 10541 10539 10537 10537 10538 10538 10538 10538 10538 10538 10537 10535 10534 10534 10533 10532 10531 10531 10531 10530 10529 10530 10531 10530 10529 10528 10527 10525 10525 10526 10526 10525 10525 10524 10522 10521 10521 10521 10520 10518 10518 10517 10517 10517 10516 10515 10514 10513 10511 10509 10509 10511 10511 10508 10504 10502 10504 10504 10501 10498 10497 10495 10494 10493 10492 10492 10491 10490 10490
10540 10540 10540 10539 10537 10536 10536 10535 10535 10536 10535 10533 10531 10531 10533 10534 10533 10530 10527 10528 10529 10528 10528 10528 10529 10529 10528 10526 10526 10526 10525 10524 10523 10523 10522 10520 10520 10521 10522 10522 10520 10519 10519 10519 10518 10517 10517 10517 10517 10516 10515 10514 10514 10514 10513 10511 10511 10510 10510 10510 10510 10509 10507 10506 10505 10503 10501 10502 10503 10502 10498 10494 10494 10494 10492 10490 10488 10486 10485 10484 10483 10483 10482 10481 10481
10533 10534 10533 10532 10529 10528 10527 10527 10527 10528 10527 10526 10525 10524 10524 10525 10526 10523 10521 10520 10520 10519 10518 10518 10519 10519 10518 10517 10517 10518 10517 10517 10516 10516 10513 10512 10512 10512 10513 10513 10512 10511 10510 10510 10510 10509 10509 10509 10509 10508 10507 10507 10507 10507 10507 10505 10504 10504 10503 10503 10502 10501 10500 10499 10498 10496 10494 10494 10495 10495 10492 10488 10486 10485 10483 10480 10477 10475 10474 10473 10473 10473 10473 10473 10472
10526 10525 10525 10524 10521 10520 10519 10518 10518 10519 10520 10520 10519 10518 10516 10515 10517 10517 10516 10513 10512 10511 10510 10510 10509 10508 10507 10506 10506 10507 10508 10509 10510 10509 10506 10505 10505 10504 10504 10504 10504 10503 10502 10501 10501 10501 10500 10500 10500 10500 10499 10499 10500 10500 10499 10499 10498 10497 10496 10496 10494 10493 10492 10491 10490 10489 10487 10486 10486 10487 10485 10481 10479 10477 10474 10471 10468 10466 10464 10463 10463 10463 10464 10463 10463
10515 10514 10514 10514 10512 10511 10509 10509 10509 10510 10511 10512 10512 10510 10508 10507 10508 10509 10509 10507 10506 10505 10504 10504 10503 10501 10498 10494 10493 10494 10496 10498 10499 10498 10497 10498 10498 10496 10495 10495 10494 10493 10493 10492 10491 10491 10490 10491 10492 10491 10490 10490 10490 10490 10490 10489 10489 10489 10488 10486 10485 10484 10483 10482 10480 10479 10478 10477 10478 10478 10477 10474 10471 10470 10467 10463 10460 10457 10454 10452 10452 10452 10452 10452 10452
10504 10503 10502 10502 10501 10500 10500 10500 10501 10502 10502 10503 10503 10502 10499 10498 10498 10500 10500 10500 10499 10499 10499 10499 10498 10495 10492 10487 10484 10485 10486 10487 10486 10485 10485 10487 10488 10487 10486 10485 10483 10482 10482 10481 10480 10480 10480 10480 10481 10481 10481 10480 10480 10480 10480 10479 10479 10479 10478 10477 10476 10475 10475 10474 10471 10469 10468 10468 10468 10469 10468 10466 10464 10462 10459 10456 10452 10449 10445 10442 10441 10441 10440 10440 10440
10494 10493 10492 10492 10492 10491 10490 10491 10492 10493 10494 10493 10493 10491 10490 10489 10489 10489 10490 10491 10492 10491 10491 10491 10489 10487 10484 10481 10479 10478 10478 10478 10476 10473 10473 10475 10477 10478 10478 10477 10476 10475 10474 10473 10472 10471 10471 10471 10471 10472 10472 10472 10471 10471 10471 10471 10471 10470 10469 10468 10468 10468 10467 10464 10462 10460 10458 10458 10459 10458 10457 10456 10454 10453 10451 10448 10443 10440 10437 10434 10431 10429 10428 10429 10429
10485 10484 10484 10483 10482 10481 10481 10481 10482 10484 10484 10483 10481 10480 10479 10479 10480 10480 10480 10480 10481 10482 10481 10480 10480 10479 10476 10474 10472 10470 10470 10470 10466 10463 10464 10466 10467 10469 10469 10469 10470 10469 10468 10467 10466 10465 10464 10463 10463 10463 10463 10464 10464 10463 10463 10463 10462 10461 10460 10460 10460 10459 10457 10454 10453 10451 10449 10449 10450 10449 10447 10446 10444 10443 10442 10439 10435 10431 10428 10425 10422 10417 10416 10417 10418
10477 10476 10476 10475 10473 10471 10470 10470 10470 10472 10473 10472 10471 10469 10468 10468 10469 10470 10470 10470 10470 10470 10469 10469 10469 10470 10469 10466 10463 10461 10461 10461 10458 10454 10456 10458 10459 10460 10460 10461 10461 10462 10461 10460 10459 10458 10457 10456 10456 10456 10456 10456 10456 10455 10455 10454 10454 10452 10451 10452 10452 10450 10447 10445 10443 10442 10441 10441 10440 10439 10438 10437 10435 10433 10432 10430 10428 10422 10416 10414 10411 10408 10405 10406 10407